Date String (YYYY-MM-DD hh:mm:ss) UTC,Instrument flags,Ambient pressure (hPa),Sample flow (lpm),Bypass flow (lpm),Sample temperature (°C),Ambient temperature (°C),ASC tube jacket temperature (°C),LED temperature (°C),Box temperature (°C),Sample RH (%),Span deviation,Mass concentration (μg/m³),Mass concentration (μg/m³),Mass concentration (μg/m³)
DateTimeUTC,F1_M11,P_M11,Q1_M11,Q2_M11,T1_M11,T2_M11,T3_M11,T4_M11,T5_M11,U1_M11,ZSPAN_M11,X0_M11,X2_M11,X1_M11
2021-10-06 08:00:00,,0828.3,5.00,0.00,30.3,29.4,00.0,39.3,32.0,12.8,0002.0,0013.80,0005.15,0003.93
2021-10-06 08:01:00,,0828.4,5.00,0.00,30.3,29.4,00.0,39.3,32.0,12.8,0001.6,0014.30,0005.16,0003.93
2021-10-06 08:02:00,,0828.3,5.00,0.00,30.3,29.4,00.0,39.3,32.0,12.8,0001.3,0014.31,0005.11,0003.92
2021-10-06 08:03:00,,0828.3,5.00,0.00,30.3,29.4,00.0,39.3,32.0,12.8,0000.0,0015.90,0005.05,0003.91
2021-10-06 08:04:00,,0828.3,4.99,0.00,30.3,29.4,00.0,39.3,32.0,12.7,0000.0,0015.55,0005.02,0003.90
2021-10-06 08:05:00,,0828.3,5.02,0.00,30.3,29.4,00.0,39.4,32.0,12.7,0000.0,0013.84,0005.00,0003.89
2021-10-06 08:06:00,,0828.3,4.99,0.00,30.3,29.4,00.0,39.4,32.0,12.7,0000.0,0013.51,0004.98,0003.88
2021-10-06 08:07:00,,0828.3,5.00,0.00,30.3,29.4,00.0,39.4,32.0,12.7,0000.0,0013.23,0004.93,0003.88
2021-10-06 08:08:00,,0828.3,5.01,0.00,30.3,29.4,00.0,39.4,32.0,12.7,0000.0,0012.86,0004.82,0003.86
2021-10-06 08:09:00,,0828.3,5.00,0.00,30.3,29.4,00.0,39.4,32.0,12.7,0000.0,0013.19,0004.72,0003.83
2021-10-06 08:10:00,,0828.3,5.00,0.00,30.3,29.4,00.0,39.4,32.0,12.8,0000.0,0012.88,0004.63,0003.80
2021-10-06 08:11:00,,0828.3,5.01,0.00,30.3,29.4,00.0,39.4,32.0,12.7,0000.0,0012.21,0004.57,0003.76
2021-10-06 08:12:00,,0828.3,4.99,0.00,30.3,29.4,00.0,39.4,32.1,12.8,0000.0,0011.61,0004.51,0003.73
2021-10-06 08:13:00,,0828.3,4.99,0.00,30.3,29.4,00.0,39.4,32.1,12.8,0000.0,0011.36,0004.49,0003.70
2021-10-06 08:14:00,,0828.3,5.00,0.00,30.3,29.4,00.0,39.4,32.0,12.9,0000.0,0010.13,0004.45,0003.68
2021-10-06 08:15:00,,0828.3,5.00,0.00,30.3,29.4,00.0,39.4,32.1,12.9,0000.0,0010.20,0004.40,0003.66
2021-10-06 08:16:00,,0828.3,5.00,0.00,30.3,29.4,00.0,39.4,32.0,12.8,0000.0,0010.37,0004.38,0003.64
2021-10-06 08:17:00,,0828.3,5.00,0.00,30.3,29.4,00.0,39.4,32.1,12.8,0000.0,0010.85,0004.34,0003.63
2021-10-06 08:18:00,,0828.3,5.00,0.00,30.3,29.4,00.0,39.4,32.1,12.8,0000.0,0010.77,0004.31,0003.60
2021-10-06 08:19:00,,0828.3,4.99,0.00,30.3,29.4,00.0,39.4,32.1,12.9,0000.0,0010.82,0004.34,0003.59
2021-10-06 08:20:00,,0828.3,5.01,0.00,30.4,29.4,00.0,39.4,32.1,13.1,0000.0,0012.08,0004.38,0003.59
2021-10-06 08:21:00,,0828.3,4.98,0.00,30.4,29.4,00.0,39.5,32.1,13.1,0000.0,0012.07,0004.39,0003.61
2021-10-06 08:22:00,,0828.3,4.99,0.00,30.4,29.4,00.0,39.5,32.1,13.1,0000.0,0012.01,0004.40,0003.63
2021-10-06 08:23:00,,0828.3,5.01,0.00,30.4,29.4,00.0,39.5,32.1,13.2,0000.0,0012.12,0004.37,0003.65
2021-10-06 08:24:00,,0828.3,5.00,0.00,30.4,29.4,00.0,39.5,32.1,13.0,0000.0,0012.30,0004.41,0003.67
2021-10-06 08:25:00,,0828.3,5.00,0.00,30.4,29.4,00.0,39.5,32.1,12.8,0000.0,0012.29,0004.47,0003.70
2021-10-06 08:26:00,,0828.2,4.99,0.00,30.4,29.4,00.0,39.5,32.1,12.8,0000.0,0011.59,0004.50,0003.72
2021-10-06 08:27:00,,0828.2,5.01,0.00,30.4,29.4,00.0,39.5,32.1,12.8,0000.0,0011.39,0004.48,0003.74
2021-10-06 08:28:00,,0828.3,4.99,0.00,30.4,29.5,00.0,39.5,32.1,12.8,0000.0,0010.57,0004.50,0003.76
2021-10-06 08:29:00,,0828.2,5.00,0.00,30.4,29.5,00.0,39.5,32.1,12.8,0000.0,0010.59,0004.56,0003.79
2021-10-06 08:30:00,,0828.2,4.99,0.00,30.4,29.5,00.0,39.5,32.1,12.7,0000.0,0010.63,0004.56,0003.80
2021-10-06 08:31:00,,0828.2,4.99,0.00,30.4,29.5,00.0,39.5,32.1,12.6,0000.4,0009.60,0004.62,0003.82
2021-10-06 08:32:00,,0828.2,5.00,0.00,30.4,29.5,00.0,39.5,32.1,12.6,0000.5,0009.32,0004.62,0003.83
2021-10-06 08:33:00,,0828.2,4.99,0.00,30.4,29.5,00.0,39.5,32.1,12.6,0000.3,0010.14,0004.63,0003.83
2021-10-06 08:34:00,,0828.2,5.01,0.00,30.4,29.5,00.0,39.5,32.2,12.6,-000.0,0010.65,0004.65,0003.82
2021-10-06 08:35:00,,0828.2,5.00,0.00,30.4,29.5,00.0,39.5,32.1,12.6,0000.4,0010.76,0004.65,0003.81
2021-10-06 08:36:00,,0828.2,4.99,0.00,30.4,29.5,00.0,39.5,32.1,12.6,0000.6,0011.42,0004.65,0003.80
2021-10-06 08:37:00,,0828.2,5.00,0.00,30.4,29.5,00.0,39.5,32.1,12.6,0001.3,0011.95,0004.65,0003.80
2021-10-06 08:38:00,,0828.2,5.00,0.00,30.4,29.5,00.0,39.5,32.1,12.7,0001.7,0012.70,0004.66,0003.80
2021-10-06 08:39:00,,0828.2,4.99,0.00,30.4,29.5,00.0,39.5,32.2,12.7,0001.2,0013.43,0004.71,0003.78
2021-10-06 08:40:00,,0828.2,5.01,0.00,30.4,29.6,00.0,39.5,32.1,12.7,0001.6,0014.50,0004.73,0003.79
2021-10-06 08:41:00,,0828.2,5.01,0.00,30.4,29.6,00.0,39.5,32.1,12.7,0001.6,0014.95,0004.74,0003.80
2021-10-06 08:42:00,,0828.3,5.00,0.00,30.5,29.6,00.0,39.6,32.2,12.7,0000.9,0015.22,0004.77,0003.81
2021-10-06 08:43:00,,0828.2,4.99,0.00,30.5,29.6,00.0,39.6,32.2,12.7,0000.0,0016.47,0004.84,0003.81
2021-10-06 08:44:00,,0828.3,4.99,0.00,30.5,29.6,00.0,39.6,32.2,12.7,0000.7,0017.85,0004.92,0003.83
2021-10-06 08:45:00,,0828.2,5.01,0.00,30.5,29.6,00.0,39.6,32.2,12.6,0001.7,0017.51,0004.95,0003.84
2021-10-06 08:46:00,,0828.2,5.01,0.00,30.5,29.6,00.0,39.6,32.2,12.6,0001.4,0017.87,0004.92,0003.86
2021-10-06 08:47:00,,0828.2,5.00,0.00,30.5,29.6,00.0,39.6,32.2,12.5,0000.7,0017.31,0004.92,0003.88
2021-10-06 08:48:00,,0828.2,5.00,0.00,30.5,29.6,00.0,39.6,32.2,12.5,0000.6,0017.44,0004.95,0003.88
2021-10-06 08:49:00,,0828.3,5.01,0.00,30.5,29.6,00.0,39.6,32.2,12.5,0000.4,0017.62,0004.99,0003.90
2021-10-06 08:50:00,,0828.2,5.00,0.00,30.5,29.6,00.0,39.6,32.2,12.6,0000.3,0017.45,0005.00,0003.91
2021-10-06 08:51:00,,0828.2,4.99,0.00,30.5,29.6,00.0,39.6,32.2,12.8,0000.0,0016.74,0004.99,0003.92
2021-10-06 08:52:00,,0828.3,5.01,0.00,30.5,29.6,00.0,39.6,32.2,12.7,0000.0,0017.19,0005.02,0003.92
2021-10-06 08:53:00,,0828.2,5.00,0.00,30.5,29.6,00.0,39.6,32.2,12.6,0000.0,0019.26,0005.00,0003.92
2021-10-06 08:54:00,,0828.1,4.99,0.00,30.5,29.6,00.0,39.6,32.2,12.5,0000.0,0018.24,0004.97,0003.91
2021-10-06 08:55:00,,0828.2,5.00,0.00,30.5,29.6,00.0,39.6,32.3,12.7,0000.0,0017.17,0004.90,0003.91
2021-10-06 08:56:00,,0828.1,5.01,0.00,30.5,29.6,00.0,39.6,32.3,12.7,0000.0,0017.50,0004.91,0003.90
2021-10-06 08:57:00,,0828.1,5.00,0.00,30.5,29.7,00.0,39.6,32.2,12.7,0000.0,0016.97,0004.95,0003.89
2021-10-06 08:58:00,,0828.1,5.00,0.00,30.5,29.7,00.0,39.6,32.2,12.7,0000.0,0016.69,0004.96,0003.89
2021-10-06 08:59:00,,0828.1,5.00,0.00,30.5,29.7,00.0,39.6,32.2,12.8,0000.0,0016.18,0004.95,0003.88
